This is the latest recevied weather packets stored in our database for station/object SP9MUF-14. If no packets are shown the sender has not sent any weather packets the latest 10 day(s).
| Time | Temp. | Humidity | Pressure | Rain* | Wind** | Luminosity | Snow |
|---|---|---|---|---|---|---|---|
| 1787480866 | 18.89° C | 52% | 1021.1 hPa | 0 mm | - | 136 W/m² | - |
| 1787480563 | 18.89° C | 52% | 1021.2 hPa | 0 mm | - | 120 W/m² | - |
| 1787480261 | 18.89° C | 51% | 1021.1 hPa | 0 mm | - | 248 W/m² | - |
| 1787479959 | 20° C | 49% | 1021.1 hPa | 0 mm | - | 181 W/m² | - |
| 1787479656 | 20° C | 51% | 1021.2 hPa | 0 mm | - | 135 W/m² | - |
| 1787479354 | 18.89° C | 50% | 1021.2 hPa | 0 mm | - | 664 W/m² | - |
| 1787479052 | 18.89° C | 53% | 1021.3 hPa | 0 mm | - | 379 W/m² | - |
| 1787478750 | 18.89° C | 54% | 1021.3 hPa | 0 mm | - | 121 W/m² | - |
| 1787478447 | 18.89° C | 54% | 1021.2 hPa | 0 mm | - | 680 W/m² | - |
| 1787477843 | 18.89° C | 55% | 1021.3 hPa | 0 mm | - | 636 W/m² | - |
| 1787477540 | 17.78° C | 56% | 1021.4 hPa | 0 mm | - | 120 W/m² | - |
| 1787477238 | 17.78° C | 57% | 1021.4 hPa | 0 mm | - | 128 W/m² | - |
| 1787476936 | 17.78° C | 56% | 1021.4 hPa | 0 mm | - | 148 W/m² | - |
| 1787476633 | 17.78° C | 57% | 1021.4 hPa | 0 mm | - | 170 W/m² | - |
| 1787476331 | 18.89° C | 56% | 1021.4 hPa | 0 mm | - | 104 W/m² | - |
| 1787475726 | 17.78° C | 57% | 1021.3 hPa | 0 mm | - | 628 W/m² | - |
| 1787475429 | 18.89° C | 57% | 1021.4 hPa | 0 mm | - | 652 W/m² | - |
| 1787475122 | 17.78° C | 57% | 1021.4 hPa | 0 mm | - | 608 W/m² | - |
| 1787474819 | 17.78° C | 57% | 1021.4 hPa | 0 mm | - | 122 W/m² | - |
| 1787473610 | 17.78° C | 59% | 1021.4 hPa | 0 mm | - | 582 W/m² | - |
| 1787473308 | 17.78° C | 58% | 1021.5 hPa | 0 mm | - | 529 W/m² | - |
| 1787473006 | 17.78° C | 59% | 1021.4 hPa | 0 mm | - | 514 W/m² | - |
| 1787472703 | 17.78° C | 60% | 1021.5 hPa | 0 mm | - | 500 W/m² | - |
| 1787472401 | 17.78° C | 59% | 1021.4 hPa | 0 mm | - | 494 W/m² | - |
| 1787472099 | 16.67° C | 60% | 1018.6 hPa | 0 mm | - | 486 W/m² | - |
* Rain latest hour (hover to see other rain measurements)
** Current wind speed in m/s (hover to see current wind gust speed)